TimeCST,TemperatureF,Dew PointF,Humidity,Sea Level PressureIn,VisibilityMPH,Wind Direction,Wind SpeedMPH,Gust SpeedMPH,PrecipitationIn,Events,Conditions,WindDirDegrees,DateUTC
12:54 AM,12.9,1.9,62,30.41,10.0,Calm,Calm,-,N/A,,Partly Cloudy,0,2014-03-04 06:54:00
1:54 AM,12.9,1.9,62,30.39,10.0,Calm,Calm,-,N/A,,Overcast,0,2014-03-04 07:54:00
2:54 AM,12.9,1.9,62,30.36,10.0,SE,5.8,-,N/A,,Overcast,140,2014-03-04 08:54:00
3:54 AM,12.9,3.0,65,30.35,10.0,SE,4.6,-,N/A,,Mostly Cloudy,130,2014-03-04 09:54:00
4:54 AM,14.0,3.9,64,30.34,10.0,SE,4.6,-,N/A,,Overcast,130,2014-03-04 10:54:00
5:54 AM,14.0,5.0,67,30.33,10.0,SE,3.5,-,N/A,,Mostly Cloudy,140,2014-03-04 11:54:00
6:54 AM,14.0,5.0,67,30.32,10.0,SSE,4.6,-,N/A,,Overcast,150,2014-03-04 12:54:00
7:54 AM,15.1,6.1,68,30.31,10.0,South,8.1,-,N/A,,Clear,170,2014-03-04 13:54:00
8:54 AM,18.0,7.0,62,30.30,10.0,South,9.2,-,N/A,,Clear,180,2014-03-04 14:54:00
9:54 AM,21.0,8.1,57,30.28,10.0,SSW,9.2,-,N/A,,Clear,200,2014-03-04 15:54:00
10:54 AM,23.0,10.0,58,30.28,10.0,South,11.5,-,N/A,,Clear,190,2014-03-04 16:54:00
11:54 AM,26.1,9.0,49,30.27,10.0,SSW,12.7,-,N/A,,Scattered Clouds,210,2014-03-04 17:54:00
12:54 PM,28.0,9.0,45,30.23,10.0,WSW,6.9,-,N/A,,Clear,240,2014-03-04 18:54:00
1:54 PM,28.9,8.1,41,30.20,10.0,SW,6.9,-,N/A,,Clear,230,2014-03-04 19:54:00
2:54 PM,30.9,10.0,42,30.19,10.0,Calm,Calm,-,N/A,,Clear,0,2014-03-04 20:54:00
3:54 PM,30.0,12.0,47,30.19,10.0,South,9.2,-,N/A,,Clear,170,2014-03-04 21:54:00
4:54 PM,30.0,12.0,47,30.19,10.0,South,5.8,-,N/A,,Clear,190,2014-03-04 22:54:00
5:54 PM,30.0,10.9,45,30.19,10.0,Calm,Calm,-,N/A,,Clear,0,2014-03-04 23:54:00
6:54 PM,27.0,12.0,53,30.19,10.0,ENE,4.6,-,N/A,,Clear,60,2014-03-05 00:54:00
7:54 PM,26.1,12.0,55,30.20,10.0,ENE,4.6,-,N/A,,Clear,60,2014-03-05 01:54:00
8:54 PM,24.1,12.0,60,30.21,10.0,ENE,6.9,-,N/A,,Clear,70,2014-03-05 02:54:00
9:54 PM,24.1,12.9,62,30.20,10.0,ENE,9.2,-,N/A,,Clear,70,2014-03-05 03:54:00
10:54 PM,24.1,14.0,65,30.21,10.0,East,9.2,-,N/A,,Clear,90,2014-03-05 04:54:00
11:54 PM,24.1,14.0,65,30.23,10.0,ENE,10.4,-,N/A,,Mostly Cloudy,70,2014-03-05 05:54:00